Tracking 30918 objects as of 2-Jul-2025
HD Live streaming from Space Station
objects crossing your sky now

ONEWEB-0512

Track ONEWEB-0512 now!
10-day predictions
ONEWEB-0512 is classified as:


NORAD ID: 54130
Int'l Code: 2022-138T
Perigee: 1,191.4 km
Apogee: 1,194.5 km
Inclination: 87.9 °
Period: 109.1 minutes
Semi major axis: 7563 km
RCS: Unknown
Launch date: October 22, 2022
Source: United Kingdom (UK)
Launch site: SRIHARIKOTA (SRI)
Your satellite tracking list
MIRANDA (X-4)
Track 1 satellite(s)




NASA's NSSDC Master Catalog

Two Line Element Set (TLE):
1 54130U 22138T   25182.80728554  .00000022  00000-0  23069-4 0  9994
2 54130  87.9211  14.6436 0002041 101.9102 258.2260 13.19724159130593
Source of the keplerian elements: AFSPC